Flight Briefing for CPX215

Departure Arrival
Don Miguel Hidalgo y Costilla International Airport (MMGL)
Click to view FAA NOTAMS
Benito Juárez International Airport (MMMX)
Click to view FAA NOTAMS
Departure Time Arrival Time
0900 UTC 1000 UTC
Aircraft Distance
B767-300BDSF 268nm
Departure METAR Arrival METAR
MMGL 260941Z 04004KT 10SM SKC 14/M03 A3014 MMMX 260943Z 06006KT 12SM SKC 09/M08 A3036 NOSIG
Suggested Route
GDL4A GDL UJ14 QET UJ5 TIKEB TIKEB1A


View recent IFR Routes data
Notes



Charts and Procedures

Charts for MMGL
No chart available
Charts for MMMX
No chart available

Windy.com Weather Map